This is the latest recevied weather packets stored in our database for station/object KF4LQQ-13. If no packets are shown the sender has not sent any weather packets the latest 1 day(s).
| Time | Temp. | Humidity | Pressure | Rain* | Wind** | Luminosity | Snow |
|---|---|---|---|---|---|---|---|
| 1778008587 | 30° C | - | 1012.2 hPa | 0 mm | 4.02 m/s, 269° | - | - |
| 1778007987 | 29.44° C | - | 1012.1 hPa | 0 mm | 4.02 m/s, 242° | - | - |
| 1778007387 | 30° C | - | 1012.2 hPa | 0 mm | 4.92 m/s, 235° | - | - |
| 1778006786 | 30° C | - | 1012.4 hPa | 0 mm | 3.13 m/s, 249° | - | - |
| 1778006186 | 30° C | - | 1012.4 hPa | 0 mm | 3.58 m/s, 236° | - | - |
| 1778005586 | 29.44° C | - | 1012.5 hPa | 0 mm | 4.92 m/s, 291° | - | - |
| 1778005299 | 28.33° C | - | 1012.8 hPa | 0 mm | 3.58 m/s, 260° | - | - |
| 1778004986 | 29.44° C | - | 1012.7 hPa | 0 mm | 3.58 m/s, 238° | - | - |
| 1778004385 | 28.33° C | - | 1012.8 hPa | 0 mm | 3.58 m/s, 260° | - | - |
| 1778003785 | 28.33° C | - | 1012.9 hPa | 0 mm | 4.02 m/s, 274° | - | - |
| 1778003185 | 28.33° C | - | 1013 hPa | 0 mm | 3.58 m/s, 284° | - | - |
| 1778002673 | 28.33° C | - | 1013.1 hPa | 0 mm | 3.13 m/s, 252° | - | - |
| 1778002585 | 28.33° C | - | 1013.1 hPa | 0 mm | 3.13 m/s, 252° | - | - |
| 1778001984 | 27.78° C | - | 1013.2 hPa | 0 mm | 3.58 m/s, 222° | - | - |
| 1778001384 | 28.33° C | - | 1013.4 hPa | 0 mm | 1.34 m/s, 240° | - | - |
| 1778000784 | 28.33° C | - | 1013.3 hPa | 0 mm | 1.79 m/s, 59° | - | - |
| 1778000184 | 28.33° C | - | 1013.3 hPa | 0 mm | 3.13 m/s, 69° | - | - |
| 1777999583 | 28.33° C | - | 1013.3 hPa | 0 mm | 4.47 m/s, 60° | - | - |
| 1777998983 | 27.78° C | - | 1013.4 hPa | 0 mm | 3.58 m/s, 66° | - | - |
| 1777998383 | 27.78° C | - | 1013.4 hPa | 0 mm | 3.13 m/s, 98° | - | - |
| 1777997783 | 27.22° C | - | 1013.4 hPa | 0 mm | 3.58 m/s, 56° | - | - |
| 1777997182 | 27.22° C | - | 1013.5 hPa | 0 mm | 1.79 m/s, 77° | - | - |
| 1777996581 | 26.67° C | - | 1013.6 hPa | 0 mm | 3.58 m/s, 97° | - | - |
| 1777995981 | 26.67° C | - | 1013.7 hPa | 0 mm | 2.68 m/s, 96° | - | - |
| 1777995381 | 26.67° C | - | 1013.8 hPa | 0 mm | 3.58 m/s, 93° | - | - |
* Rain since midnight (hover to see other rain measurements)
** Current wind speed in m/s (hover to see current wind gust speed)